Flag for Brazil Weather past 2 weeks in Manaus, Amazonas, Brazil

Now
77 °F

Clear.


Feels Like: 78 °F
Forecast: 76 / 86 °F
Wind: 2 mph from Northeast

Location: Manaus Aeroporto

Current Time: Apr 25, 2015 at 3:20:39 AM

Latest Report: Apr 25, 2015 at 3:00 AM


Visibility: 10 mi

Pressure: 29.89 "Hg

Humidity: 94%

Dew point: 75 °F

Location of ManausLocation

Historic Weather in Manaus — Graph

°F

Manaus temperature yesterday

Maximum temperature yesterday: 84 °F (at 2:00 PM)
Minimum temperature yesterday: 73 °F (at 1:00 AM)
Average temperature yesterday: 79 °F

Past Weeks' High & Low Weather Summary

 TemperatureHumidityPressure
High90 °F (Apr 21, 3:00 PM)100% (Apr 17, 5:00 PM)30.04 "Hg (Apr 17, 5:00 PM)
Low45 °F (Apr 17, 5:00 PM)52% (Apr 21, 3:00 PM)29.74 "Hg (Apr 20, 3:00 PM)
Average79 °F83%29.88 "Hg
* Reported Apr 10 2:00 AM — Apr 25 2:00 AM, Manaus, Weather by CustomWeather, © 2015

Note: Actual official high and low records may vary slightly from our data, if they occured in-between our weather recording intervals... More about our weather records

Advertising

Manaus weather history for previous 24 hours

 ConditionsComfort  
Time TempWeatherWind HumidityBarometerVisibility
2:00 AM
Sat, Apr 25
79 °FClear.2 mph89%29.89 "Hg10 mi
1:00 AM79 °FClear.2 mph89%29.92 "Hg10 mi
12:00 AM79 °FClear.2 mph89%29.92 "Hg10 mi
11:00 PM
Fri, Apr 24
79 °FClear.2 mph89%29.95 "Hg10 mi
10:00 PM79 °FClear.2 mph89%29.92 "Hg10 mi
9:00 PM79 °FClear.3 mph89%29.89 "Hg10 mi
8:00 PM79 °FClear.3 mph89%29.89 "Hg10 mi
7:00 PM81 °FPassing clouds.2 mph84%29.86 "HgN/A
6:00 PM81 °FPassing clouds.2 mph84%29.83 "HgN/A
5:00 PM82 °FBroken clouds.5 mph79%29.86 "HgN/A
4:00 PM84 °FScattered clouds.5 mph74%29.83 "HgN/A
3:00 PM84 °FScattered clouds.5 mph74%29.83 "HgN/A
2:00 PM84 °FScattered clouds.5 mph74%29.86 "HgN/A
1:00 PM82 °FBroken clouds.2 mph84%29.92 "HgN/A
12:00 PM82 °FPartly sunny.2 mph79%29.95 "HgN/A
11:00 AM81 °FThunderstorms. Partly sunny.5 mph84%N/A3 mi
10:00 AM82 °FBroken clouds.2 mph79%29.98 "HgN/A
9:00 AM79 °FBroken clouds.No wind89%29.98 "HgN/A
8:00 AM77 °FPartly sunny.3 mph89%29.95 "HgN/A
7:00 AM77 °FBroken clouds.5 mph89%29.92 "HgN/A
6:00 AM77 °FBroken clouds.3 mph89%29.92 "HgN/A
5:00 AM77 °FPassing clouds.6 mph89%29.89 "HgN/A
4:00 AM77 °FPassing clouds.3 mph94%29.89 "HgN/A
3:00 AM75 °FPassing clouds.2 mph94%29.86 "HgN/A
Weather by CustomWeather, © 2015

See weather overviewHow to use our weather pages